Regional Weather Roundup
Issued by NWS

Home | Current Version | Previous Version | Graphics & Text | Print | Product List | Glossary On
Versions: 1 2 3 4 5 6 7 8 9 10 11 12 13 14 15 16 17 18 19 20 21 22 23 24 25 26 27 28 29 30 31 32 33 34 35 36 37 38 39 40 41 42 43 44 45 46 47 48 49 50
498
ASUS44 KMEG 060910
RWRTN
TENNESSEE HOURLY STATE WEATHER ROUNDUP
NATIONAL WEATHER SERVICE MEMPHIS TN
300 AM CST SAT FEB 06 2016

TNZ002-004-019-021-049-052-054-088>092-061000-
WEST TENNESSEE

CITY           SKY/WX    TMP DP  RH WIND       PRES   REMARKS
MEMPHIS INTL   CLOUDY    35  25  66 CALM      30.35F
NWS MEMPHIS      N/A     30 N/A N/A MISG        N/A
JACKSON        CLEAR     27  24  89 CALM      30.36F
DYERSBURG      PTCLDY    32  27  80 CALM      30.37F
UNION CITY     CLEAR     27  25  93 CALM      30.34F
PARIS          CLEAR     30  19  64 CALM      30.35F
LEXINGTON      CLEAR     27  23  86 CALM      30.35F
$$

TNZ008-025-027-028-033-062-065-066-061000-
NORTH MIDDLE TENNESSEE

CITY           SKY/WX    TMP DP  RH WIND       PRES   REMARKS
NASHVILLE      PTCLDY    30  22  72 CALM      30.38S
CLARKSVILLE    CLEAR     27  24  89 CALM      30.36S
SMYRNA         CLEAR     26  25  96 CALM      30.40S
COOKEVILLE     CLEAR     23  21  93 CALM      30.36R
CROSSVILLE     PTCLDY    27  17  66 CALM      30.34S
$$

TNZ061-075-076-078-094-096-097-061000-
SOUTH MIDDLE TENNESSEE

CITY           SKY/WX    TMP DP  RH WIND       PRES   REMARKS
FAYETTEVILLE   CLEAR     30  21  69 CALM      30.36S
TULLAHOMA      CLEAR     27  23  86 CALM      30.36S
WINCHESTER     CLEAR     28  21  74 CALM      30.37S
MCMINNVILLE    CLEAR     27  25  93 CALM      30.36S
COLUMBIA       CLEAR     27  27 100 CALM      30.35F
SHELBYVILLE    CLEAR     28  25  86 CALM      30.38S
$$

TNZ017-018-042-046-047-061000-
NORTHEAST TENNESSEE

CITY           SKY/WX    TMP DP  RH WIND       PRES   REMARKS
TRI CITIES     PTCLDY    22  19  89 NE3       30.37S
$$

TNZ012-013-036-069-073-074-061000-
CENTRAL EAST TENNESSEE

CITY           SKY/WX    TMP DP  RH WIND       PRES   REMARKS
KNOXVILLE      MOCLDY    28  21  75 CALM      30.36F
OAK RIDGE      PTCLDY    28  22  78 N3        30.39S
GATLINBURG       N/A     23  19  86 CALM      30.37S
MORRISTOWN     SUNNY     27  21  80 CALM      30.35F
$$

TNZ083-085-099-061000-
SOUTHEAST TENNESSEE

CITY           SKY/WX    TMP DP  RH WIND       PRES   REMARKS
CHATTANOOGA    PTCLDY    30  24  78 CALM      30.37F
$$

SKY/WX REPORTED AS FAIR MEANS FEW OR NO CLOUDS BELOW
12 THOUSAND FEET.





USA.gov is the U.S. government's official web portal to all federal, state and local government web resources and services.